This is the latest recevied weather packets stored in our database for station/object N3FU-13. If no packets are shown the sender has not sent any weather packets the latest 10 day(s).
| Time | Temp. | Humidity | Pressure | Rain* | Wind** | Luminosity | Snow |
|---|---|---|---|---|---|---|---|
| 1777678033 | 26.67° C | 80% | 1010.4 hPa | 0 mm | - | - | - |
| 1777677133 | 27.22° C | 79% | 1010.3 hPa | 0 mm | - | - | - |
| 1777676382 | 27.78° C | 77% | 1010.1 hPa | 0 mm | - | - | - |
| 1777676233 | 27.78° C | 77% | 1010.1 hPa | 0 mm | - | - | - |
| 1777675333 | 28.33° C | 76% | 1010 hPa | 0 mm | - | - | - |
| 1777674434 | 28.89° C | 75% | 1010 hPa | 0 mm | - | - | - |
| 1777673533 | 28.89° C | 74% | 1010 hPa | 0 mm | - | - | - |
| 1777672735 | 29.44° C | 73% | 1009.9 hPa | 0 mm | - | - | - |
| 1777672633 | 29.44° C | 73% | 1009.9 hPa | 0 mm | - | - | - |
| 1777671733 | 30° C | 72% | 1010 hPa | 0 mm | - | - | - |
| 1777670833 | 30° C | 72% | 1009.9 hPa | 0 mm | - | - | - |
| 1777669933 | 30.56° C | 70% | 1009.9 hPa | 0 mm | - | - | - |
| 1777669033 | 30.56° C | 73% | 1010.2 hPa | 0 mm | - | - | - |
| 1777668133 | 30° C | 72% | 1010.1 hPa | 0 mm | - | - | - |
| 1777667310 | 30.56° C | 69% | 1010.3 hPa | 0 mm | - | - | - |
| 1777667233 | 30.56° C | 69% | 1010.3 hPa | 0 mm | - | - | - |
| 1777666333 | 31.11° C | 67% | 1010.4 hPa | 0 mm | - | - | - |
| 1777665433 | 31.67° C | 64% | 1010.6 hPa | 0 mm | - | - | - |
| 1777664533 | 32.22° C | 64% | 1011 hPa | 0 mm | - | - | - |
| 1777663633 | 31.67° C | 65% | 1011.3 hPa | 0 mm | - | - | - |
| 1777662733 | 32.22° C | 64% | 1011.7 hPa | 0 mm | - | - | - |
| 1777661833 | 32.22° C | 62% | 1012.1 hPa | 0 mm | - | - | - |
| 1777660933 | 32.22° C | 64% | 1012.3 hPa | 0 mm | - | - | - |
| 1777660314 | 32.22° C | 62% | 1012.4 hPa | 0 mm | - | - | - |
| 1777660033 | 32.22° C | 62% | 1012.4 hPa | 0 mm | - | - | - |
* Rain latest hour (hover to see other rain measurements)
** Current wind speed in m/s (hover to see current wind gust speed)